Data supplied by UK-AIR on 25/3/2016
All Data GMT hour ending 
Status: R =Ratified P=Provisional,P*=As supplied
,,Yarner Wood,,,,,,,,,,,,,,,,,,,,,,,
Date,time,"Nitric oxide",status,unit,"Nitrogen dioxide",status,unit,"Nitrogen oxides as nitrogen dioxide",status,unit,"Ozone",status,unit
 
01-01-2015,01:00,0.19084,R,ugm-3,2.42760,R,ugm-3,2.72021,R,ugm-3,78.89667,R,ugm-3
01-01-2015,02:00,0.35735,R,ugm-3,2.37437,R,ugm-3,2.92230,R,ugm-3,77.03402,R,ugm-3
01-01-2015,03:00,0.28594,R,ugm-3,3.25508,R,ugm-3,3.69352,R,ugm-3,79.57854,R,ugm-3
01-01-2015,04:00,0.10758,R,ugm-3,3.30815,R,ugm-3,3.47310,R,ugm-3,76.38542,R,ugm-3
01-01-2015,05:00,0.17899,R,ugm-3,2.53741,R,ugm-3,2.81185,R,ugm-3,78.92994,R,ugm-3
01-01-2015,06:00,0.28594,R,ugm-3,3.31006,R,ugm-3,3.74850,R,ugm-3,74.83875,R,ugm-3
01-01-2015,07:00,0.21454,R,ugm-3,4.30169,R,ugm-3,4.63064,R,ugm-3,73.54155,R,ugm-3
01-01-2015,08:00,0.17899,R,ugm-3,3.80492,R,ugm-3,4.07936,R,ugm-3,77.13381,R,ugm-3
01-01-2015,09:00,0.14344,R,ugm-3,2.53693,R,ugm-3,2.75687,R,ugm-3,82.97123,R,ugm-3
01-01-2015,10:00,0.28563,R,ugm-3,2.20894,R,ugm-3,2.64690,R,ugm-3,84.86714,R,ugm-3
01-01-2015,11:00,0.21454,R,ugm-3,3.03370,R,ugm-3,3.36265,R,ugm-3,84.56779,R,ugm-3
01-01-2015,12:00,0.28563,R,ugm-3,3.20057,R,ugm-3,3.63853,R,ugm-3,83.91919,R,ugm-3
01-01-2015,13:00,0.25008,R,ugm-3,2.48338,R,ugm-3,2.86684,R,ugm-3,85.66542,R,ugm-3
01-01-2015,14:00,0.10758,R,ugm-3,2.86732,R,ugm-3,3.03227,R,ugm-3,85.11661,R,ugm-3
01-01-2015,15:00,0.17899,R,ugm-3,3.19913,R,ugm-3,3.47358,R,ugm-3,85.06671,R,ugm-3
01-01-2015,16:00,0.14313,R,ugm-3,3.63901,R,ugm-3,3.85847,R,ugm-3,84.81725,R,ugm-3
01-01-2015,17:00,0.28594,R,ugm-3,3.64140,R,ugm-3,4.07984,R,ugm-3,84.86714,R,ugm-3
01-01-2015,18:00,0.14282,R,ugm-3,2.81329,R,ugm-3,3.03227,R,ugm-3,84.96693,R,ugm-3
01-01-2015,19:00,0.21454,R,ugm-3,1.87616,R,ugm-3,2.20511,R,ugm-3,86.31403,R,ugm-3
01-01-2015,20:00,0.17868,R,ugm-3,1.65575,R,ugm-3,1.92971,R,ugm-3,86.76306,R,ugm-3
01-01-2015,21:00,0.10758,R,ugm-3,1.54339,R,ugm-3,1.70834,R,ugm-3,86.21424,R,ugm-3
01-01-2015,22:00,0.17899,R,ugm-3,1.37891,R,ugm-3,1.65336,R,ugm-3,85.16650,R,ugm-3
01-01-2015,23:00,0.14313,R,ugm-3,1.32393,R,ugm-3,1.54339,R,ugm-3,85.21639,R,ugm-3
01-01-2015,24:00,0.10758,R,ugm-3,1.21348,R,ugm-3,1.37843,R,ugm-3,82.72177,R,ugm-3
02-01-2015,01:00,0.04740,R,ugm-3,1.10224,R,ugm-3,1.17491,R,ugm-3,80.62628,R,ugm-3
02-01-2015,02:00,0.32149,R,ugm-3,1.48984,R,ugm-3,1.98278,R,ugm-3,84.35159,R,ugm-3
02-01-2015,03:00,0.14250,R,ugm-3,2.59048,R,ugm-3,2.80898,R,ugm-3,85.21639,R,ugm-3
02-01-2015,04:00,0.14250,R,ugm-3,2.03968,R,ugm-3,2.25818,R,ugm-3,87.26198,R,ugm-3
02-01-2015,05:00,0.17836,R,ugm-3,1.54482,R,ugm-3,1.81831,R,ugm-3,86.71317,R,ugm-3
02-01-2015,06:00,0.21391,R,ugm-3,1.37987,R,ugm-3,1.70786,R,ugm-3,84.96693,R,ugm-3
02-01-2015,07:00,0.24977,R,ugm-3,1.21396,R,ugm-3,1.59694,R,ugm-3,83.96908,R,ugm-3
02-01-2015,08:00,0.14250,R,ugm-3,1.15802,R,ugm-3,1.37652,R,ugm-3,84.41811,R,ugm-3
02-01-2015,09:00,0.14250,R,ugm-3,1.26894,R,ugm-3,1.48745,R,ugm-3,84.01897,R,ugm-3
02-01-2015,10:00,0.24977,R,ugm-3,2.04064,R,ugm-3,2.42362,R,ugm-3,79.77811,R,ugm-3
02-01-2015,11:00,0.28563,R,ugm-3,2.81138,R,ugm-3,3.24934,R,ugm-3,79.82800,R,ugm-3
02-01-2015,12:00,0.21391,R,ugm-3,1.98518,R,ugm-3,2.31317,R,ugm-3,84.11876,R,ugm-3
02-01-2015,13:00,0.21391,R,ugm-3,2.70141,R,ugm-3,3.02940,R,ugm-3,83.17080,R,ugm-3
02-01-2015,14:00,0.17805,R,ugm-3,2.48099,R,ugm-3,2.75400,R,ugm-3,86.01467,R,ugm-3
02-01-2015,15:00,0.14250,R,ugm-3,2.31460,R,ugm-3,2.53311,R,ugm-3,86.01467,R,ugm-3
02-01-2015,16:00,0.10664,R,ugm-3,2.09467,R,ugm-3,2.25818,R,ugm-3,79.12951,R,ugm-3
02-01-2015,17:00,0.21391,R,ugm-3,1.60028,R,ugm-3,1.92828,R,ugm-3,69.30068,R,ugm-3
02-01-2015,18:00,0.28563,R,ugm-3,2.15061,R,ugm-3,2.58857,R,ugm-3,70.74757,R,ugm-3
02-01-2015,19:00,0.21422,R,ugm-3,2.20559,R,ugm-3,2.53406,R,ugm-3,62.21595,R,ugm-3
02-01-2015,20:00,0.10664,R,ugm-3,1.87473,R,ugm-3,2.03825,R,ugm-3,57.67573,R,ugm-3
02-01-2015,21:00,0.21391,R,ugm-3,1.98518,R,ugm-3,2.31317,R,ugm-3,53.23530,R,ugm-3
02-01-2015,22:00,0.10664,R,ugm-3,1.15802,R,ugm-3,1.32154,R,ugm-3,60.12046,R,ugm-3
02-01-2015,23:00,0.14250,R,ugm-3,1.15802,R,ugm-3,1.37652,R,ugm-3,56.02928,R,ugm-3
02-01-2015,24:00,0.28563,R,ugm-3,1.76476,R,ugm-3,2.20272,R,ugm-3,52.78627,R,ugm-3
03-01-2015,01:00,0.28563,R,ugm-3,2.93760,R,ugm-3,3.37556,R,ugm-3,40.04705,R,ugm-3
03-01-2015,02:00,0.35673,R,ugm-3,8.64354,R,ugm-3,9.19052,R,ugm-3,38.31744,R,ugm-3
03-01-2015,03:00,0.35673,R,ugm-3,7.37795,R,ugm-3,7.92492,R,ugm-3,49.29379,R,ugm-3
03-01-2015,04:00,0.24946,R,ugm-3,7.54194,R,ugm-3,7.92444,R,ugm-3,52.93594,R,ugm-3
03-01-2015,05:00,0.17805,R,ugm-3,3.19388,R,ugm-3,3.46688,R,ugm-3,79.82800,R,ugm-3
03-01-2015,06:00,0.24977,R,ugm-3,2.47812,R,ugm-3,2.86110,R,ugm-3,79.37897,R,ugm-3
03-01-2015,07:00,0.17836,R,ugm-3,2.09275,R,ugm-3,2.36624,R,ugm-3,77.18370,R,ugm-3
03-01-2015,08:00,0.14250,R,ugm-3,1.37796,R,ugm-3,1.59646,R,ugm-3,74.48950,R,ugm-3
03-01-2015,09:00,0.14250,R,ugm-3,1.37796,R,ugm-3,1.59646,R,ugm-3,77.18370,R,ugm-3
03-01-2015,10:00,0.10664,R,ugm-3,1.26799,R,ugm-3,1.43151,R,ugm-3,80.37682,R,ugm-3
03-01-2015,11:00,0.14219,R,ugm-3,0.99354,R,ugm-3,1.21157,R,ugm-3,82.82155,R,ugm-3
03-01-2015,12:00,0.14219,R,ugm-3,1.10351,R,ugm-3,1.32154,R,ugm-3,83.32048,R,ugm-3
03-01-2015,13:00,0.17836,R,ugm-3,1.15802,R,ugm-3,1.43151,R,ugm-3,82.82155,R,ugm-3
03-01-2015,14:00,0.17805,R,ugm-3,1.26847,R,ugm-3,1.54148,R,ugm-3,82.37252,R,ugm-3
03-01-2015,15:00,0.17805,R,ugm-3,1.21348,R,ugm-3,1.48649,R,ugm-3,82.57209,R,ugm-3
03-01-2015,16:00,0.14250,R,ugm-3,1.10303,R,ugm-3,1.32154,R,ugm-3,83.17080,R,ugm-3
03-01-2015,17:00,0.17836,R,ugm-3,1.76285,R,ugm-3,2.03633,R,ugm-3,78.68047,R,ugm-3
03-01-2015,18:00,0.17805,R,ugm-3,1.98326,R,ugm-3,2.25627,R,ugm-3,74.88864,R,ugm-3
03-01-2015,19:00,0.24977,R,ugm-3,2.64308,R,ugm-3,3.02605,R,ugm-3,72.14456,R,ugm-3
03-01-2015,20:00,0.10664,R,ugm-3,2.42266,R,ugm-3,2.58618,R,ugm-3,70.34843,R,ugm-3
03-01-2015,21:00,0.17836,R,ugm-3,4.73487,R,ugm-3,5.00836,R,ugm-3,62.61509,R,ugm-3
03-01-2015,22:00,0.14219,R,ugm-3,8.25674,R,ugm-3,8.47477,R,ugm-3,60.81896,R,ugm-3
03-01-2015,23:00,0.28563,R,ugm-3,7.26607,R,ugm-3,7.70403,R,ugm-3,67.55445,R,ugm-3
03-01-2015,24:00,0.32087,R,ugm-3,6.66172,R,ugm-3,7.15371,R,ugm-3,66.80606,R,ugm-3
04-01-2015,01:00,0.23699,R,ugm-3,5.27659,R,ugm-3,5.63996,R,ugm-3,68.11989,R,ugm-3
04-01-2015,02:00,0.24884,R,ugm-3,3.62849,R,ugm-3,4.01003,R,ugm-3,76.36879,R,ugm-3
04-01-2015,03:00,0.21329,R,ugm-3,3.84795,R,ugm-3,4.17499,R,ugm-3,74.24004,R,ugm-3
04-01-2015,04:00,0.24884,R,ugm-3,3.13411,R,ugm-3,3.51565,R,ugm-3,71.94499,R,ugm-3
04-01-2015,05:00,0.24915,R,ugm-3,2.91465,R,ugm-3,3.29667,R,ugm-3,71.69552,R,ugm-3
04-01-2015,06:00,0.32024,R,ugm-3,3.51900,R,ugm-3,4.01003,R,ugm-3,69.60004,R,ugm-3
04-01-2015,07:00,0.24884,R,ugm-3,3.46354,R,ugm-3,3.84508,R,ugm-3,66.35703,R,ugm-3
04-01-2015,08:00,0.24884,R,ugm-3,3.13459,R,ugm-3,3.51613,R,ugm-3,61.21810,R,ugm-3
04-01-2015,09:00,0.24884,R,ugm-3,3.79344,R,ugm-3,4.17499,R,ugm-3,61.76692,R,ugm-3
04-01-2015,10:00,0.32024,R,ugm-3,3.84891,R,ugm-3,4.33994,R,ugm-3,52.48691,R,ugm-3
04-01-2015,11:00,0.39196,R,ugm-3,7.25459,R,ugm-3,7.85559,R,ugm-3,54.03358,R,ugm-3
04-01-2015,12:00,0.64111,R,ugm-3,11.70737,R,ugm-3,12.69039,R,ugm-3,57.97509,R,ugm-3
04-01-2015,13:00,0.60556,R,ugm-3,7.75184,R,ugm-3,8.68036,R,ugm-3,65.55875,R,ugm-3
04-01-2015,14:00,0.57002,R,ugm-3,7.36647,R,ugm-3,8.24048,R,ugm-3,64.66068,R,ugm-3
04-01-2015,15:00,0.49892,R,ugm-3,8.24479,R,ugm-3,9.00979,R,ugm-3,63.56305,R,ugm-3
04-01-2015,16:00,0.35610,R,ugm-3,9.06764,R,ugm-3,9.61366,R,ugm-3,61.56735,R,ugm-3
04-01-2015,17:00,0.24884,R,ugm-3,9.56154,R,ugm-3,9.94309,R,ugm-3,59.42197,R,ugm-3
04-01-2015,18:00,0.32024,R,ugm-3,11.32009,R,ugm-3,11.81112,R,ugm-3,55.13121,R,ugm-3
04-01-2015,19:00,0.24915,R,ugm-3,8.13338,R,ugm-3,8.51541,R,ugm-3,63.16391,R,ugm-3
04-01-2015,20:00,0.24884,R,ugm-3,7.03513,R,ugm-3,7.41668,R,ugm-3,62.96434,R,ugm-3
04-01-2015,21:00,0.28438,R,ugm-3,6.54123,R,ugm-3,6.97728,R,ugm-3,61.46756,R,ugm-3
04-01-2015,22:00,0.21329,R,ugm-3,6.04541,R,ugm-3,6.37245,R,ugm-3,56.07917,R,ugm-3
04-01-2015,23:00,0.14219,R,ugm-3,6.64928,R,ugm-3,6.86731,R,ugm-3,53.88390,R,ugm-3
04-01-2015,24:00,0.14219,R,ugm-3,6.15443,R,ugm-3,6.37245,R,ugm-3,53.28519,R,ugm-3
05-01-2015,01:00,0.14219,R,ugm-3,4.68563,R,ugm-3,4.90365,R,ugm-3,46.36676,R,ugm-3
05-01-2015,02:00,0.24884,R,ugm-3,3.40616,R,ugm-3,3.78771,R,ugm-3,54.54913,R,ugm-3
05-01-2015,03:00,0.07110,R,ugm-3,2.41644,R,ugm-3,2.52546,R,ugm-3,72.24434,R,ugm-3
05-01-2015,04:00,0.03555,R,ugm-3,5.98326,R,ugm-3,6.03776,R,ugm-3,59.27229,R,ugm-3
05-01-2015,05:00,0.17774,R,ugm-3,5.76523,R,ugm-3,6.03776,R,ugm-3,53.58455,R,ugm-3
05-01-2015,06:00,0.10664,R,ugm-3,2.47095,R,ugm-3,2.63447,R,ugm-3,76.18585,R,ugm-3
05-01-2015,07:00,0.07110,R,ugm-3,2.03108,R,ugm-3,2.14009,R,ugm-3,82.42241,R,ugm-3
05-01-2015,08:00,0.21329,R,ugm-3,8.51015,R,ugm-3,8.83718,R,ugm-3,64.51100,R,ugm-3
05-01-2015,09:00,0.35548,R,ugm-3,20.25768,R,ugm-3,20.80274,R,ugm-3,41.85981,R,ugm-3
05-01-2015,10:00,0.96042,R,ugm-3,23.55626,R,ugm-3,25.02889,R,ugm-3,40.36303,R,ugm-3
05-01-2015,11:00,0.60463,R,ugm-3,10.76403,R,ugm-3,11.69111,R,ugm-3,70.74757,R,ugm-3
05-01-2015,12:00,0.35548,R,ugm-3,5.21873,R,ugm-3,5.76380,R,ugm-3,84.31833,R,ugm-3
05-01-2015,13:00,0.28438,R,ugm-3,4.77838,R,ugm-3,5.21443,R,ugm-3,83.66972,R,ugm-3
05-01-2015,14:00,0.21329,R,ugm-3,4.61343,R,ugm-3,4.94047,R,ugm-3,83.91919,R,ugm-3
05-01-2015,15:00,0.28438,R,ugm-3,3.95505,R,ugm-3,4.39110,R,ugm-3,85.71532,R,ugm-3
05-01-2015,16:00,0.28438,R,ugm-3,5.27228,R,ugm-3,5.70833,R,ugm-3,80.67617,R,ugm-3
05-01-2015,17:00,0.21329,R,ugm-3,6.75399,R,ugm-3,7.08103,R,ugm-3,77.23359,R,ugm-3
05-01-2015,18:00,0.31993,R,ugm-3,7.13888,R,ugm-3,7.62944,R,ugm-3,76.43531,R,ugm-3
05-01-2015,19:00,0.24884,R,ugm-3,5.32679,R,ugm-3,5.70833,R,ugm-3,77.63273,R,ugm-3
05-01-2015,20:00,0.14219,R,ugm-3,4.94142,R,ugm-3,5.15945,R,ugm-3,77.28348,R,ugm-3
05-01-2015,21:00,0.14219,R,ugm-3,3.73368,R,ugm-3,3.95170,R,ugm-3,77.78241,R,ugm-3
05-01-2015,22:00,0.10664,R,ugm-3,2.19698,R,ugm-3,2.36050,R,ugm-3,84.11876,R,ugm-3
05-01-2015,23:00,0.07110,R,ugm-3,1.86660,R,ugm-3,1.97561,R,ugm-3,84.81725,R,ugm-3
05-01-2015,24:00,0.10664,R,ugm-3,1.75711,R,ugm-3,1.92063,R,ugm-3,81.62413,R,ugm-3
06-01-2015,01:00,0.14219,R,ugm-3,2.26823,R,ugm-3,2.48625,R,ugm-3,75.37094,R,ugm-3
06-01-2015,02:00,0.21329,R,ugm-3,1.97657,R,ugm-3,2.30361,R,ugm-3,75.37094,R,ugm-3
06-01-2015,03:00,0.10664,R,ugm-3,3.51135,R,ugm-3,3.67487,R,ugm-3,71.64563,R,ugm-3
06-01-2015,04:00,0.07110,R,ugm-3,2.63303,R,ugm-3,2.74205,R,ugm-3,73.69122,R,ugm-3
06-01-2015,05:00,0.17774,R,ugm-3,1.48267,R,ugm-3,1.75520,R,ugm-3,83.61983,R,ugm-3
06-01-2015,06:00,0.03555,R,ugm-3,1.26225,R,ugm-3,1.31676,R,ugm-3,86.11446,R,ugm-3
06-01-2015,07:00,0.17774,R,ugm-3,1.37270,R,ugm-3,1.64523,R,ugm-3,86.26413,R,ugm-3
06-01-2015,08:00,0.10664,R,ugm-3,2.41405,R,ugm-3,2.57757,R,ugm-3,85.11661,R,ugm-3
06-01-2015,09:00,0.10664,R,ugm-3,1.09778,R,ugm-3,1.26129,R,ugm-3,89.15790,R,ugm-3
06-01-2015,10:00,0.21329,R,ugm-3,1.09873,R,ugm-3,1.42577,R,ugm-3,86.71317,R,ugm-3
06-01-2015,11:00,0.24884,R,ugm-3,1.20918,R,ugm-3,1.59072,R,ugm-3,87.76091,R,ugm-3
06-01-2015,12:00,0.24884,R,ugm-3,1.64810,R,ugm-3,2.02964,R,ugm-3,85.91489,R,ugm-3
06-01-2015,13:00,0.14219,R,ugm-3,2.08558,R,ugm-3,2.30361,R,ugm-3,87.01252,R,ugm-3
06-01-2015,14:00,0.14219,R,ugm-3,1.97561,R,ugm-3,2.19364,R,ugm-3,89.15790,R,ugm-3
06-01-2015,15:00,0.00000,R,ugm-3,1.97418,R,ugm-3,1.97418,R,ugm-3,87.01252,R,ugm-3
06-01-2015,16:00,0.07110,R,ugm-3,1.97466,R,ugm-3,2.08367,R,ugm-3,84.06886,R,ugm-3
06-01-2015,17:00,0.10664,R,ugm-3,1.53717,R,ugm-3,1.70069,R,ugm-3,73.04262,R,ugm-3
06-01-2015,18:00,0.17774,R,ugm-3,1.92111,R,ugm-3,2.19364,R,ugm-3,69.10111,R,ugm-3
06-01-2015,19:00,0.00000,R,ugm-3,2.08367,R,ugm-3,2.08367,R,ugm-3,65.90799,R,ugm-3
06-01-2015,20:00,0.17774,R,ugm-3,2.85345,R,ugm-3,3.12598,R,ugm-3,64.26154,R,ugm-3
06-01-2015,21:00,0.17774,R,ugm-3,3.01793,R,ugm-3,3.29046,R,ugm-3,59.67143,R,ugm-3
06-01-2015,22:00,0.24884,R,ugm-3,4.16973,R,ugm-3,4.55127,R,ugm-3,68.40262,R,ugm-3
06-01-2015,23:00,0.17774,R,ugm-3,5.10207,R,ugm-3,5.37460,R,ugm-3,56.12906,R,ugm-3
06-01-2015,24:00,0.17774,R,ugm-3,3.07291,R,ugm-3,3.34544,R,ugm-3,64.31143,R,ugm-3
07-01-2015,01:00,0.28355,R,ugm-3,2.26568,R,ugm-3,2.70045,R,ugm-3,71.84520,R,ugm-3
07-01-2015,02:00,0.35455,R,ugm-3,1.91967,R,ugm-3,2.46330,R,ugm-3,71.24649,R,ugm-3
07-01-2015,03:00,0.24790,R,ugm-3,1.59072,R,ugm-3,1.97083,R,ugm-3,72.94284,R,ugm-3
07-01-2015,04:00,0.28314,R,ugm-3,2.24814,R,ugm-3,2.68228,R,ugm-3,77.53295,R,ugm-3
07-01-2015,05:00,0.28345,R,ugm-3,1.70021,R,ugm-3,2.13483,R,ugm-3,79.27918,R,ugm-3
07-01-2015,06:00,0.21267,R,ugm-3,1.91919,R,ugm-3,2.24528,R,ugm-3,78.48090,R,ugm-3
07-01-2015,07:00,0.24790,R,ugm-3,1.64523,R,ugm-3,2.02534,R,ugm-3,77.48305,R,ugm-3
07-01-2015,08:00,0.24790,R,ugm-3,2.08415,R,ugm-3,2.46426,R,ugm-3,78.68047,R,ugm-3
07-01-2015,09:00,0.31869,R,ugm-3,2.13913,R,ugm-3,2.62778,R,ugm-3,83.81940,R,ugm-3
07-01-2015,10:00,0.28345,R,ugm-3,2.41118,R,ugm-3,2.84580,R,ugm-3,84.36822,R,ugm-3
07-01-2015,11:00,0.21267,R,ugm-3,1.91824,R,ugm-3,2.24432,R,ugm-3,85.51575,R,ugm-3
07-01-2015,12:00,0.21267,R,ugm-3,2.08319,R,ugm-3,2.40927,R,ugm-3,85.31618,R,ugm-3
07-01-2015,13:00,0.21267,R,ugm-3,1.97370,R,ugm-3,2.29978,R,ugm-3,86.11446,R,ugm-3
07-01-2015,14:00,0.24821,R,ugm-3,1.75424,R,ugm-3,2.13483,R,ugm-3,86.76306,R,ugm-3
07-01-2015,15:00,0.17743,R,ugm-3,2.08271,R,ugm-3,2.35477,R,ugm-3,86.76306,R,ugm-3
07-01-2015,16:00,0.17743,R,ugm-3,2.52020,R,ugm-3,2.79225,R,ugm-3,86.21424,R,ugm-3
07-01-2015,17:00,0.24790,R,ugm-3,1.97466,R,ugm-3,2.35477,R,ugm-3,86.66327,R,ugm-3
07-01-2015,18:00,0.17743,R,ugm-3,1.80827,R,ugm-3,2.08032,R,ugm-3,87.21209,R,ugm-3
07-01-2015,19:00,0.21298,R,ugm-3,2.46617,R,ugm-3,2.79273,R,ugm-3,87.61123,R,ugm-3
07-01-2015,20:00,0.21267,R,ugm-3,1.86373,R,ugm-3,2.18981,R,ugm-3,88.30973,R,ugm-3
07-01-2015,21:00,0.28314,R,ugm-3,1.42673,R,ugm-3,1.86086,R,ugm-3,89.20779,R,ugm-3
07-01-2015,22:00,0.21267,R,ugm-3,1.31676,R,ugm-3,1.64284,R,ugm-3,89.30758,R,ugm-3
07-01-2015,23:00,0.21267,R,ugm-3,1.20727,R,ugm-3,1.53335,R,ugm-3,89.00822,R,ugm-3
07-01-2015,24:00,0.10664,R,ugm-3,1.15037,R,ugm-3,1.31389,R,ugm-3,87.91059,R,ugm-3
08-01-2015,01:00,0.18917,R,ugm-3,1.24185,R,ugm-3,1.53191,R,ugm-3,85.41596,R,ugm-3
08-01-2015,02:00,0.10633,R,ugm-3,1.36839,R,ugm-3,1.53143,R,ugm-3,83.61983,R,ugm-3
08-01-2015,03:00,0.10664,R,ugm-3,1.64188,R,ugm-3,1.80540,R,ugm-3,84.01897,R,ugm-3
08-01-2015,04:00,0.14188,R,ugm-3,1.80636,R,ugm-3,2.02390,R,ugm-3,83.76951,R,ugm-3
08-01-2015,05:00,0.14219,R,ugm-3,1.64188,R,ugm-3,1.85991,R,ugm-3,80.97553,R,ugm-3
08-01-2015,06:00,0.10633,R,ugm-3,1.42290,R,ugm-3,1.58594,R,ugm-3,73.14241,R,ugm-3
08-01-2015,07:00,0.03555,R,ugm-3,1.36744,R,ugm-3,1.42194,R,ugm-3,70.54800,R,ugm-3
08-01-2015,08:00,0.17712,R,ugm-3,1.36935,R,ugm-3,1.64093,R,ugm-3,72.89294,R,ugm-3
08-01-2015,09:00,0.00000,R,ugm-3,1.42194,R,ugm-3,1.42194,R,ugm-3,93.79790,R,ugm-3
08-01-2015,10:00,0.17743,R,ugm-3,1.47836,R,ugm-3,1.75042,R,ugm-3,91.55274,R,ugm-3
08-01-2015,11:00,0.14219,R,ugm-3,1.36792,R,ugm-3,1.58594,R,ugm-3,93.39876,R,ugm-3
08-01-2015,12:00,0.10664,R,ugm-3,1.47741,R,ugm-3,1.64093,R,ugm-3,92.99962,R,ugm-3
08-01-2015,13:00,0.14219,R,ugm-3,1.75137,R,ugm-3,1.96940,R,ugm-3,93.79790,R,ugm-3
08-01-2015,14:00,0.14219,R,ugm-3,1.86086,R,ugm-3,2.07889,R,ugm-3,93.74801,R,ugm-3
08-01-2015,15:00,0.07110,R,ugm-3,1.91489,R,ugm-3,2.02390,R,ugm-3,89.40736,R,ugm-3
08-01-2015,16:00,0.10664,R,ugm-3,2.02438,R,ugm-3,2.18790,R,ugm-3,85.96478,R,ugm-3
08-01-2015,17:00,0.17743,R,ugm-3,2.07984,R,ugm-3,2.35190,R,ugm-3,80.82585,R,ugm-3
08-01-2015,18:00,0.28314,R,ugm-3,1.91728,R,ugm-3,2.35142,R,ugm-3,77.53295,R,ugm-3
08-01-2015,19:00,0.17743,R,ugm-3,3.11881,R,ugm-3,3.39086,R,ugm-3,79.52865,R,ugm-3
08-01-2015,20:00,0.21267,R,ugm-3,3.61176,R,ugm-3,3.93784,R,ugm-3,83.86929,R,ugm-3
08-01-2015,21:00,0.21267,R,ugm-3,2.79177,R,ugm-3,3.11785,R,ugm-3,86.91274,R,ugm-3
08-01-2015,22:00,0.21267,R,ugm-3,1.36983,R,ugm-3,1.69591,R,ugm-3,93.04951,R,ugm-3
08-01-2015,23:00,0.17743,R,ugm-3,1.04040,R,ugm-3,1.31245,R,ugm-3,95.74371,R,ugm-3
08-01-2015,24:00,0.21267,R,ugm-3,1.53383,R,ugm-3,1.85991,R,ugm-3,94.39661,R,ugm-3
09-01-2015,01:00,0.23574,R,ugm-3,1.02319,R,ugm-3,1.38465,R,ugm-3,96.59188,R,ugm-3
09-01-2015,02:00,0.14095,R,ugm-3,0.98637,R,ugm-3,1.20248,R,ugm-3,95.66055,R,ugm-3
09-01-2015,03:00,0.17649,R,ugm-3,1.75185,R,ugm-3,2.02247,R,ugm-3,91.55274,R,ugm-3
09-01-2015,04:00,0.17649,R,ugm-3,1.53239,R,ugm-3,1.80301,R,ugm-3,86.91274,R,ugm-3
09-01-2015,05:00,0.24728,R,ugm-3,1.20535,R,ugm-3,1.58451,R,ugm-3,83.02112,R,ugm-3
09-01-2015,06:00,0.10571,R,ugm-3,1.09538,R,ugm-3,1.25747,R,ugm-3,81.22499,R,ugm-3
09-01-2015,07:00,0.17649,R,ugm-3,1.04136,R,ugm-3,1.31198,R,ugm-3,81.67402,R,ugm-3
09-01-2015,08:00,0.17649,R,ugm-3,1.09586,R,ugm-3,1.36648,R,ugm-3,84.56779,R,ugm-3
09-01-2015,09:00,0.03524,R,ugm-3,1.20344,R,ugm-3,1.25747,R,ugm-3,86.16435,R,ugm-3
09-01-2015,10:00,0.03524,R,ugm-3,1.47645,R,ugm-3,1.53048,R,ugm-3,83.96908,R,ugm-3
09-01-2015,11:00,0.24759,R,ugm-3,1.80636,R,ugm-3,2.18599,R,ugm-3,82.17295,R,ugm-3
09-01-2015,12:00,0.21204,R,ugm-3,2.07937,R,ugm-3,2.40449,R,ugm-3,83.96908,R,ugm-3
09-01-2015,13:00,0.07047,R,ugm-3,2.35094,R,ugm-3,2.45900,R,ugm-3,81.47445,R,ugm-3
09-01-2015,14:00,0.03524,R,ugm-3,3.11498,R,ugm-3,3.16901,R,ugm-3,73.09251,R,ugm-3
09-01-2015,15:00,0.21204,R,ugm-3,2.84437,R,ugm-3,3.16949,R,ugm-3,70.04907,R,ugm-3
09-01-2015,16:00,0.07047,R,ugm-3,2.46043,R,ugm-3,2.56849,R,ugm-3,71.24649,R,ugm-3
09-01-2015,17:00,0.17649,R,ugm-3,2.35285,R,ugm-3,2.62347,R,ugm-3,71.84520,R,ugm-3
09-01-2015,18:00,0.24759,R,ugm-3,2.29835,R,ugm-3,2.67798,R,ugm-3,71.04692,R,ugm-3
09-01-2015,19:00,0.10602,R,ugm-3,2.02343,R,ugm-3,2.18599,R,ugm-3,74.53940,R,ugm-3
09-01-2015,20:00,0.21173,R,ugm-3,1.36935,R,ugm-3,1.69400,R,ugm-3,76.88434,R,ugm-3
09-01-2015,21:00,0.17649,R,ugm-3,1.53287,R,ugm-3,1.80349,R,ugm-3,77.33338,R,ugm-3
09-01-2015,22:00,0.21204,R,ugm-3,1.20488,R,ugm-3,1.53000,R,ugm-3,77.58284,R,ugm-3
09-01-2015,23:00,0.03524,R,ugm-3,1.14893,R,ugm-3,1.20296,R,ugm-3,78.48090,R,ugm-3
09-01-2015,24:00,0.10602,R,ugm-3,0.98542,R,ugm-3,1.14798,R,ugm-3,79.97768,R,ugm-3
10-01-2015,01:00,0.04698,R,ugm-3,0.94733,R,ugm-3,1.01936,R,ugm-3,80.69280,R,ugm-3
10-01-2015,02:00,0.21204,R,ugm-3,1.80444,R,ugm-3,2.12957,R,ugm-3,80.75933,R,ugm-3
10-01-2015,03:00,0.17649,R,ugm-3,2.45948,R,ugm-3,2.73009,R,ugm-3,80.77596,R,ugm-3
10-01-2015,04:00,0.24759,R,ugm-3,2.13148,R,ugm-3,2.51111,R,ugm-3,80.07746,R,ugm-3
10-01-2015,05:00,0.28314,R,ugm-3,1.69543,R,ugm-3,2.12957,R,ugm-3,81.02542,R,ugm-3
10-01-2015,06:00,0.21204,R,ugm-3,1.58642,R,ugm-3,1.91154,R,ugm-3,80.82585,R,ugm-3
10-01-2015,07:00,0.17649,R,ugm-3,1.42194,R,ugm-3,1.69256,R,ugm-3,80.87574,R,ugm-3
10-01-2015,08:00,0.14126,R,ugm-3,1.42147,R,ugm-3,1.63806,R,ugm-3,80.92564,R,ugm-3
10-01-2015,09:00,0.07047,R,ugm-3,1.20201,R,ugm-3,1.31006,R,ugm-3,86.41381,R,ugm-3
10-01-2015,10:00,0.03524,R,ugm-3,1.36505,R,ugm-3,1.41908,R,ugm-3,90.45510,R,ugm-3
10-01-2015,11:00,0.21204,R,ugm-3,1.20296,R,ugm-3,1.52809,R,ugm-3,90.00607,R,ugm-3
10-01-2015,12:00,0.24759,R,ugm-3,1.47741,R,ugm-3,1.85704,R,ugm-3,88.50930,R,ugm-3
10-01-2015,13:00,0.21204,R,ugm-3,1.20296,R,ugm-3,1.52809,R,ugm-3,87.61123,R,ugm-3
10-01-2015,14:00,0.10571,R,ugm-3,1.14798,R,ugm-3,1.31006,R,ugm-3,89.40736,R,ugm-3
10-01-2015,15:00,0.17681,R,ugm-3,1.20296,R,ugm-3,1.47406,R,ugm-3,88.25983,R,ugm-3
10-01-2015,16:00,0.21173,R,ugm-3,1.36792,R,ugm-3,1.69256,R,ugm-3,86.61338,R,ugm-3
10-01-2015,17:00,0.10571,R,ugm-3,1.63949,R,ugm-3,1.80158,R,ugm-3,83.22069,R,ugm-3
10-01-2015,18:00,0.24759,R,ugm-3,1.14941,R,ugm-3,1.52904,R,ugm-3,84.66757,R,ugm-3
10-01-2015,19:00,0.10602,R,ugm-3,0.98398,R,ugm-3,1.14654,R,ugm-3,84.51790,R,ugm-3
10-01-2015,20:00,0.17649,R,ugm-3,0.60339,R,ugm-3,0.87401,R,ugm-3,86.91274,R,ugm-3
10-01-2015,21:00,0.24759,R,ugm-3,0.65790,R,ugm-3,1.03753,R,ugm-3,83.07101,R,ugm-3
10-01-2015,22:00,0.14095,R,ugm-3,0.71241,R,ugm-3,0.92852,R,ugm-3,66.65638,R,ugm-3
10-01-2015,23:00,0.21204,R,ugm-3,0.27540,R,ugm-3,0.60053,R,ugm-3,86.91274,R,ugm-3
10-01-2015,24:00,0.14157,R,ugm-3,0.16495,R,ugm-3,0.38202,R,ugm-3,86.76306,R,ugm-3
11-01-2015,01:00,0.32887,R,ugm-3,0.22249,R,ugm-3,0.72675,R,ugm-3,88.47603,R,ugm-3
11-01-2015,02:00,0.38760,R,ugm-3,0.33230,R,ugm-3,0.92661,R,ugm-3,87.94385,R,ugm-3
11-01-2015,03:00,0.31713,R,ugm-3,0.54937,R,ugm-3,1.03562,R,ugm-3,88.60908,R,ugm-3
11-01-2015,04:00,0.24665,R,ugm-3,0.71193,R,ugm-3,1.09013,R,ugm-3,86.96263,R,ugm-3
11-01-2015,05:00,0.24665,R,ugm-3,0.71193,R,ugm-3,1.09013,R,ugm-3,85.46585,R,ugm-3
11-01-2015,06:00,0.35236,R,ugm-3,0.38633,R,ugm-3,0.92661,R,ugm-3,85.76521,R,ugm-3
11-01-2015,07:00,0.35236,R,ugm-3,0.44083,R,ugm-3,0.98111,R,ugm-3,83.96908,R,ugm-3
11-01-2015,08:00,0.28189,R,ugm-3,0.43988,R,ugm-3,0.87210,R,ugm-3,83.86929,R,ugm-3
11-01-2015,09:00,0.38760,R,ugm-3,0.60483,R,ugm-3,1.19914,R,ugm-3,85.36607,R,ugm-3
11-01-2015,10:00,0.21142,R,ugm-3,0.60244,R,ugm-3,0.92661,R,ugm-3,85.66542,R,ugm-3
11-01-2015,11:00,0.28189,R,ugm-3,1.20296,R,ugm-3,1.63519,R,ugm-3,83.27058,R,ugm-3
11-01-2015,12:00,0.31713,R,ugm-3,2.02103,R,ugm-3,2.50729,R,ugm-3,85.26628,R,ugm-3
11-01-2015,13:00,0.03524,R,ugm-3,1.52665,R,ugm-3,1.58068,R,ugm-3,86.61338,R,ugm-3
11-01-2015,14:00,0.10571,R,ugm-3,1.96366,R,ugm-3,2.12574,R,ugm-3,87.36177,R,ugm-3
11-01-2015,15:00,0.10571,R,ugm-3,1.69113,R,ugm-3,1.85321,R,ugm-3,88.70887,R,ugm-3
11-01-2015,16:00,0.21142,R,ugm-3,1.69256,R,ugm-3,2.01673,R,ugm-3,87.96048,R,ugm-3
11-01-2015,17:00,0.14095,R,ugm-3,1.85513,R,ugm-3,2.07124,R,ugm-3,85.56564,R,ugm-3
11-01-2015,18:00,0.14095,R,ugm-3,1.58259,R,ugm-3,1.79871,R,ugm-3,86.21424,R,ugm-3
11-01-2015,19:00,0.14095,R,ugm-3,1.41908,R,ugm-3,1.63519,R,ugm-3,88.30973,R,ugm-3
11-01-2015,20:00,0.21142,R,ugm-3,1.25651,R,ugm-3,1.58068,R,ugm-3,88.90844,R,ugm-3
11-01-2015,21:00,0.24665,R,ugm-3,0.92995,R,ugm-3,1.30815,R,ugm-3,89.90629,R,ugm-3
11-01-2015,22:00,0.21142,R,ugm-3,0.76596,R,ugm-3,1.09013,R,ugm-3,91.70242,R,ugm-3
11-01-2015,23:00,0.07047,R,ugm-3,0.65503,R,ugm-3,0.76309,R,ugm-3,92.15145,R,ugm-3
11-01-2015,24:00,0.07047,R,ugm-3,0.65503,R,ugm-3,0.76309,R,ugm-3,94.44650,R,ugm-3
12-01-2015,01:00,0.28189,R,ugm-3,0.58523,R,ugm-3,1.01745,R,ugm-3,94.92880,R,ugm-3
12-01-2015,02:00,0.28189,R,ugm-3,1.25556,R,ugm-3,1.68778,R,ugm-3,93.39876,R,ugm-3
12-01-2015,03:00,0.24665,R,ugm-3,1.52761,R,ugm-3,1.90581,R,ugm-3,95.04521,R,ugm-3
12-01-2015,04:00,0.24665,R,ugm-3,1.58212,R,ugm-3,1.96031,R,ugm-3,96.64177,R,ugm-3
12-01-2015,05:00,0.24665,R,ugm-3,1.25508,R,ugm-3,1.63328,R,ugm-3,96.69167,R,ugm-3
12-01-2015,06:00,0.10571,R,ugm-3,1.25317,R,ugm-3,1.41525,R,ugm-3,95.39446,R,ugm-3
12-01-2015,07:00,0.10571,R,ugm-3,1.19914,R,ugm-3,1.36122,R,ugm-3,93.64822,R,ugm-3
12-01-2015,08:00,0.10571,R,ugm-3,1.36218,R,ugm-3,1.52426,R,ugm-3,89.85639,R,ugm-3
12-01-2015,09:00,0.28189,R,ugm-3,2.12766,R,ugm-3,2.55988,R,ugm-3,87.26198,R,ugm-3
12-01-2015,10:00,0.24665,R,ugm-3,2.23619,R,ugm-3,2.61439,R,ugm-3,86.46370,R,ugm-3
12-01-2015,11:00,0.17618,R,ugm-3,1.85369,R,ugm-3,2.12383,R,ugm-3,87.61123,R,ugm-3
12-01-2015,12:00,0.14095,R,ugm-3,1.79871,R,ugm-3,2.01482,R,ugm-3,87.06241,R,ugm-3
12-01-2015,13:00,0.21142,R,ugm-3,1.85417,R,ugm-3,2.17834,R,ugm-3,84.11876,R,ugm-3
12-01-2015,14:00,0.03524,R,ugm-3,2.28783,R,ugm-3,2.34186,R,ugm-3,83.07101,R,ugm-3
12-01-2015,15:00,0.24665,R,ugm-3,2.18168,R,ugm-3,2.55988,R,ugm-3,85.21639,R,ugm-3
12-01-2015,16:00,0.17618,R,ugm-3,1.90820,R,ugm-3,2.17834,R,ugm-3,87.41166,R,ugm-3
12-01-2015,17:00,0.17618,R,ugm-3,1.90820,R,ugm-3,2.17834,R,ugm-3,86.31403,R,ugm-3
12-01-2015,18:00,0.24665,R,ugm-3,2.39923,R,ugm-3,2.77743,R,ugm-3,89.15790,R,ugm-3
12-01-2015,19:00,0.17618,R,ugm-3,2.34425,R,ugm-3,2.61439,R,ugm-3,90.00607,R,ugm-3
12-01-2015,20:00,0.17618,R,ugm-3,1.85369,R,ugm-3,2.12383,R,ugm-3,85.06671,R,ugm-3
12-01-2015,21:00,0.17618,R,ugm-3,1.58116,R,ugm-3,1.85130,R,ugm-3,84.11876,R,ugm-3
12-01-2015,22:00,0.14095,R,ugm-3,1.25364,R,ugm-3,1.46976,R,ugm-3,84.96693,R,ugm-3
12-01-2015,23:00,0.10571,R,ugm-3,1.30815,R,ugm-3,1.47023,R,ugm-3,87.16220,R,ugm-3
12-01-2015,24:00,0.10571,R,ugm-3,1.03610,R,ugm-3,1.19818,R,ugm-3,92.35102,R,ugm-3
13-01-2015,01:00,0.23491,R,ugm-3,1.09140,R,ugm-3,1.45159,R,ugm-3,91.27001,R,ugm-3